sat.trackr.live / text

‹ back to catalog

ONEWEB-0321

NORAD 49191 · 2021-083F

PAYLOAD ACTIVE UNKNOWN

§ Identity

Operator
Country
UK
Launch date
2021-09-14
Launch site
TYMSC
Launch vehicle
Mass (kg)
RCS (m²)

Purposes: comms

External: N2YO · Heavens-Above · Gunter

§ Orbital elements

Epoch: 2026-09-19T23:20:46.958208Z

Period
109.03 min
Inclination
87.9141°
Eccentricity
0.0001973
Mean motion
13.20773584 rev/d
Perigee alt
1,180.3 km
Apogee alt
1,183.3 km
Semi-major
7,559.9 km
B*
6.7280e-6
RAAN
255.5244°
Arg perigee
84.6571°
Mean anomaly
275.4788°
Rev number
24,934

§ Raw data

ONEWEB-03211 49191U 21083F   26262.97276572  .00000016  00000+0  67280-5 0  99952 49191  87.9141 255.5244 0001973  84.6571 275.4788 13.20773584249347

JSON: /api/v1/satellites/49191 · /tle

For live sub-satellite position, see the globe view (requires WebGL).

§ Visibility from observer

Set your observer location to see the next 7 days of passes ≥ 10°. The values pass through the URL so the page stays shareable.

No JS? Fill the form by hand. The geolocation button needs JavaScript.